Regional Weather Roundup
Issued by NWS

Home | Current Version | Previous Version | Graphics & Text | Print | Product List | Glossary On
Versions: 1 2 3 4 5 6 7 8 9 10 11 12 13 14 15 16 17 18 19 20 21 22 23 24 25 26 27 28 29 30 31 32 33 34 35 36 37 38 39 40 41 42 43 44 45 46 47 48 49 50
000
ASUS43 KMKX 262228
RWRWI

WISCONSIN REGIONAL WEATHER ROUNDUP
NATIONAL WEATHER SERVICE MILWAUKEE/SULLIVAN WI
500 PM CDT TUE MAY 26 2015

NOTE: "FAIR" INDICATES FEW OR NO CLOUDS BELOW 12,000 FEET WITH NO
SIGNIFICANT WEATHER AND/OR OBSTRUCTIONS TO VISIBILITY.

WIZ001-002-006>008-014>016-023>028-262300-
NORTHWEST WISCONSIN

CITY           SKY/WX    TMP DP  RH WIND       PRES   REMARKS
SUPERIOR ARPT  CLOUDY    57  53  86 NE6       29.81S
ASHLAND        CLOUDY    56  54  93 N8        29.79F
HAYWARD        LGT RAIN  56  53  90 N13       29.77F
SIREN          LGT RAIN  57  56  95 N5        29.78F
CUMBERLAND     LGT RAIN  55  55 100 N12       29.75S
RICE LAKE      RAIN      60  57  89 NW8       29.75S
CHETEK         HVY RAIN  61  60  97 NW9       29.73R
LADYSMITH      CLOUDY    63  60  93 N10       29.74S
EAU CLAIRE     LGT RAIN  63  60  90 NW9       29.69F
MENOMONIE      HVY RAIN  64  63  94 CALM      29.73R
NEW RICHMOND   LGT RAIN  59  59 100 N9        29.77S
OSCEOLA        RAIN      58  58 100 NW9       29.80S
$$

WIZ003>005-009-010-017-018-262300-
NORTH CENTRAL WISCONSIN

CITY           SKY/WX    TMP DP  RH WIND       PRES   REMARKS
MANITOWISH WTR RAIN      58  58 100 NE8       29.75F
ARBOR VITAE    LGT RAIN  62  60  94 N8        29.74F
WOODRUFF       LGT RAIN  62  60  94 N8        29.74F
RHINELANDER    CLOUDY    64  62  93 NE6       29.71F
EAGLE RIVER    LGT RAIN  61  60  97 NE8       29.74F
LAND O LAKES   RAIN      59  58  96 NE6       29.77F
PHILLIPS       DRIZZLE   63  62  97 N9        29.71F
TOMAHAWK       CLOUDY    63  60  89 NE3       29.71F
MEDFORD        CLOUDY    66  60  81 NE9       29.68F
MERRILL        CLOUDY    65  63  91 NE8       29.69F
$$

WIZ029-030-035-036-043>047-262300-
CENTRAL WISCONSIN

CITY           SKY/WX    TMP DP  RH WIND       PRES   REMARKS
WAUSAU         CLOUDY    65  61  87 NE5       29.65F
MOSINEE        LGT RAIN  63  63 100 N8        29.68F
MARSHFIELD     LGT RAIN  64  60  87 S6        29.67F FOG
STEVENS POINT  CLOUDY    64  62  91 E8        29.65F
WAUPACA        RAIN      67  67  98 E5        29.64F
WAUTOMA        MOSUNNY   72  70  94 VRB3      29.64S
WISC RAPIDS    HVY RAIN  64  61  90 NE7       29.66F FOG
CAMP DOUGLAS   LGT RAIN  68  68 100 CALM      29.62F
$$

WIZ011>013-019>022-031-037>040-048>050-262300-
NORTHEAST WISCONSIN

CITY           SKY/WX    TMP DP  RH WIND       PRES   REMARKS
ANTIGO         CLOUDY    64  61  92 NE10      29.70F
SHAWANO        LGT RAIN  67  65  92 E9        29.67F
OCONTO         CLOUDY    64  64 100 E8        29.68F
STURGEON BAY   CLOUDY    63  57  82 SE9       29.72F
GREEN BAY      CLOUDY    67  64  90 SE16      29.67F FOG
MANITOWOC      CLOUDY    61  61 100 S15       29.71S FOG
APPLETON       PTSUNNY   70  66  88 SE13      29.64F
CLINTONVILLE   HVY RAIN  64  63  94 E9        29.65F
OSHKOSH        MOSUNNY   74  63  68 SW15G22   29.64F
$$

WIZ032>034-041-042-053>061-262300-
SOUTHWEST WISCONSIN

CITY           SKY/WX    TMP DP  RH WIND       PRES   REMARKS
LA CROSSE      LGT RAIN  64  57  78 NW14      29.63R
SPARTA         CLOUDY    67  62  86 E3        29.63F
VIROQUA        CLOUDY    65  65 100 SW14      29.64F
BOSCOBEL       LGT RAIN  66  61  84 SW15G35   29.66R
PRAIRIE DU CHI CLOUDY    63  62  96 W15G26    29.69R
PLATTEVILLE    CLOUDY    67  63  85 W18G31    29.71R
$$

WIZ056-057-062-063-064-067-068-262300-
SOUTH CENTRAL WISCONSIN

CITY           SKY/WX    TMP DP  RH WIND       PRES   REMARKS
REEDSBURG      PTSUNNY   70  64  80 S12       29.64S
BARABOO/DELLS  LGT RAIN  67  62  84 S8G22     29.63F
LONE ROCK      CLOUDY    72  64  76 SW12      29.64F
MINERAL POINT  CLOUDY    66  63  88 SW21G30   29.68R
MADISON        CLOUDY    71  64  78 SW9       29.65S
MIDDLETON      CLOUDY    71  65  80 SW8G16    29.66S
WATERTOWN      PTSUNNY   74  64  68 S15G23    29.65F
MONROE         CLOUDY    70  61  73 SW28G40   29.70R
JANESVILLE     PTSUNNY   73  64  73 SW21G26   29.70R
$$

WIZ051-052-058>065-066-070>072-262300-
SOUTHEAST WISCONSIN

CITY           SKY/WX    TMP DP  RH WIND       PRES   REMARKS
MILWAUKEE      MOSUNNY   76  62  62 SW20      29.70F
WAUKESHA       PTSUNNY   73  61  64 S22G29    29.71F
MILWAUKEE/TIMM MOSUNNY   75  57  53 SW20G25   29.70F
RACINE         SUNNY     75  61  61 S20G30    29.73F
BURLINGTON     PTSUNNY   73  60  65 SW20G30   29.71S
KENOSHA        PTSUNNY   74  62  66 S18G25    29.72F
FOND DU LAC    MOSUNNY   75  61  61 SW17G28   29.65F
SHEBOYGAN      CLOUDY    65  62  90 SE8       29.69F
WEST BEND      MOSUNNY   75  61  60 S17       29.68F
JUNEAU         PTSUNNY   74  63  68 S17G23    29.67F
$$

LSZ147-162-262300-
LAKE SUPERIOR

STATION/POSITION TIME  TEMP    WIND        PRES    WAVE
                       AIR SEA DIR/SP/G            HT/PER
                 (UTC) (F)     (DEG/KT/KT) (MB)    (FT/S)
W MID LAKE BUOY  2150   39 37  110/  4/  4   N/A     1
DEVILS ISLAND    2200   44      40/  4/  5   N/A
SAXON HARBOR     2140   49        CALM     1088.0
$$

LMZ867-665-643>646-262300-
LAKE MICHIGAN

STATION/POSITION TIME  TEMP    WIND        PRES    WAVE
                       AIR SEA DIR/SP/G            HT/PER
                 (UTC) (F)     (DEG/KT/KT) (MB)    (FT/S)
CHAMBERS ISLAND  2100   64     160/  3/  7 1075.0
N MID LAKE BUOY  2150   46 37  190/  2/  4 1080.0F   2/ 5
NORTHPORT PIER   2100   60     160/  9/ 12 1075.0F
SISTER BAY       2118   63     150/  8/ 11   N/A
ALGOMA LAKESHORE 2108             CALM       N/A
KEWAUNEE LAKESHO 2100   56     180/  5/  8 1062.0F
SHEBOYGAN LAKESH 2200   52     170/ 15/ 15 1057.0F
PORT WASHINGTON  2140   54     170/  3/  6 1064.0F
ATWATER BUOY     2200      47  200/ 17/ 19 1070.0F
MILWAUKEE LAKESH 2200          210/ 15/ 21   N/A
S MID LAKE BUOY  2150   47 38  180/ 14/ 16 1082.0F   2/ 3
KENOSHA   LAKESH 2200          210/ 15/ 23 1064.0F
$$

TC  - TEMPERATURE IN CELSIUS
VSB - VISIBILITY IN STATUTE MILES
WCI - WIND CHILL INDEX
HX  - HEAT INDEX



USA.gov is the U.S. government's official web portal to all federal, state and local government web resources and services.